Probability
9 10 11 11 9 7 9 11 10 5 3 5 8 11 12 10 6 4 5 4 1 0 0 0 0 0 0 0 0 0 0 0 0 0 0 0 0 0
9 9 9 8 6 6 7 9 8 5 3 5 8 10 9 6 5 4 4 4 3 1 0 0 0 0 0 0 0 0 0 0 0 0 0 0 0 0
7 7 7 6 5 4 5 7 6 4 3 4 6 7 6 5 5 4 4 4 4 2 0 0 0 0 0 0 0 0 0 0 0 0 0 0 0 0
6 6 6 6 5 4 4 5 5 5 4 3 3 4 5 5 4 4 4 4 4 2 0 0 0 0 0 0 0 0 0 0 0 0 0 0 0 0
6 6 6 6 6 5 4 4 4 5 5 4 2 2 3 3 3 3 4 4 4 2 1 0 0 0 0 0 0 0 0 0 0 0 0 0 0 0
5 5 6 6 5 4 4 4 6 6 6 4 2 1 2 3 3 3 3 4 4 3 2 0 0 0 0 0 0 0 0 0 0 0 0 0 0 0
4 4 4 4 3 3 3 4 6 7 6 5 2 1 3 3 4 4 4 4 4 4 3 2 1 1 1 1 0 0 0 0 0 0 0 0 0 0
4 4 4 3 1 1 1 2 3 4 4 4 3 2 3 4 4 4 4 4 4 5 5 4 3 4 4 3 1 0 0 0 0 0 0 0 0 0
5 5 5 3 1 1 1 1 1 2 3 3 2 1 2 4 4 4 4 4 5 6 7 6 6 6 6 4 2 0 0 0 0 0 0 0 0 0
4 5 5 3 2 2 2 2 2 2 2 2 2 1 1 2 3 3 3 4 5 5 6 6 6 6 6 5 2 0 0 0 0 0 0 0 0 0
4 4 3 3 2 2 2 3 3 3 1 1 1 1 0 1 1 1 2 4 4 4 4 4 3 3 3 3 2 1 1 0 0 0 0 0 0 0
2 2 1 1 1 0 1 2 2 2 2 1 0 0 0 0 0 1 1 3 3 3 3 2 1 1 1 1 1 2 1 0 0 0 0 0 0 0
1 1 0 0 0 0 0 1 1 1 2 1 0 0 0 0 1 1 2 2 3 2 2 1 0 0 0 0 1 1 1 0 0 0 0 0 0 0
0 0 0 0 0 0 0 0 0 0 1 1 0 0 0 0 1 2 3 2 1 1 1 0 0 0 0 0 0 0 0 0 0 0 0 0 0 0
0 0 0 0 0 0 0 0 0 0 0 0 0 0 0 0 1 2 2 1 0 0 0 0 0 0 0 0 0 0 0 0 0 0 0 0 0 0
0 0 0 0 0 0 0 0 0 0 0 0 0 0 0 0 1 1 1 0 0 0 0 0 0 0 0 0 0 0 0 0 0 0 0 0 0 0
0 0 0 0 0 0 0 0 0 0 0 0 0 0 0 0 0 0 0 0 0 0 0 0 0 0 0 0 0 0 0 0 0 0 0 0 0 0
0 0 0 0 0 0 0 0 0 0 0 0 0 0 0 0 0 0 0 0 0 0 0 0 0 0 0 0 0 0 0 0 0 0 0 0 0 0
0 0 0 0 0 0 0 0 0 0 0 0 0 0 0 0 0 0 0 0 0 0 0 0 0 0 0 0 0 0 0 0 0 0 0 0 0 0
0 0 0 0 0 0 0 0 0 0 0 0 0 0 0 0 0 0 0 0 0 0 0 0 0 0 0 0 0 0 0 0 0 0 0 0 0 0
0 0 0 0 0 0 0 0 0 0 0 0 0 0 0 0 0 0 0 0 0 0 0 0 0 0 0 0 0 0 0 0 0 0 0 0 0 0
0 0 0 0 0 0 0 0 0 0 0 0 0 0 0 0 0 0 0 0 0 0 0 0 0 0 0 0 0 0 0 0 0 0 0 0 0 0
0 0 0 0 0 0 0 0 0 0 0 0 0 0 0 0 0 0 0 0 0 0 0 0 0 0 0 0 0 0 0 0 0 0 0 0 0 0
Wind_Speed
5 5 5 4 4 4 5 5 5 5 4 3 2 1 0 0 1 1 1 5 6 6 6 6 6 6 5 5 5 5 5 5 5 5 5 5 5 5
3 4 4 4 4 4 4 5 5 5 4 1 1 0 0 0 2 1 1 5 5 6 6 6 6 6 6 5 5 5 5 6 6 6 5 5 5 5
3 3 3 4 4 3 4 4 4 4 4 2 1 0 1 1 0 0 0 1 2 5 6 6 6 6 6 6 6 6 6 6 6 6 6 6 6 5
2 3 3 3 3 3 3 3 3 3 4 3 2 2 1 1 1 1 1 1 1 5 6 6 6 6 6 6 6 6 6 6 6 6 6 6 6 6
2 2 3 3 3 2 3 2 2 3 3 3 2 1 2 2 1 1 1 1 1 3 5 5 5 6 6 6 7 7 7 7 6 6 6 6 6 7
1 1 2 2 2 2 2 2 2 2 2 3 2 2 1 1 1 1 1 1 1 2 3 4 5 6 6 6 7 7 7 7 7 7 6 6 6 6
0 0 1 2 3 2 2 2 2 2 2 2 2 2 2 2 2 2 1 1 1 1 2 3 3 3 3 4 5 6 7 8 7 7 7 6 6 6
0 0 0 1 2 2 2 3 2 2 2 2 2 3 3 3 2 2 2 2 2 1 2 2 2 2 2 3 5 6 7 8 8 8 7 7 7 7
0 1 1 1 1 1 2 1 0 1 1 3 3 3 3 3 3 3 2 2 1 1 2 2 2 2 2 3 6 7 8 8 9 9 8 8 7 7
1 1 1 2 2 2 1 1 1 1 1 2 1 1 1 2 3 3 3 2 2 2 2 2 2 2 2 3 7 7 8 8 8 9 9 8 7 7
1 2 1 2 3 3 1 0 1 1 2 2 2 1 2 1 1 2 3 3 2 2 2 2 2 2 2 2 5 7 7 7 7 8 9 9 8 8
2 2 4 3 3 3 1 0 0 1 1 1 2 3 3 2 2 2 3 3 2 2 2 2 3 2 2 2 2 4 5 6 7 8 8 8 7 5
1 1 3 3 2 3 3 1 1 2 1 1 1 2 2 2 2 1 1 2 2 1 2 3 2 2 2 2 2 2 2 3 5 6 8 8 7 5
1 1 3 2 1 1 1 2 3 4 1 1 1 1 1 1 1 1 0 1 1 1 0 1 1 2 2 2 2 2 2 2 3 3 4 8 8 7
2 4 2 1 2 2 1 2 3 1 1 1 1 1 1 1 1 1 2 2 2 2 2 1 1 2 2 1 2 2 2 2 2 2 3 3 4 5
2 4 3 1 1 1 2 1 0 1 0 0 1 1 1 1 1 1 1 2 2 3 3 2 1 2 2 2 2 3 2 2 3 2 2 2 3 4
1 2 2 2 1 1 1 1 1 1 1 1 1 1 1 1 1 1 1 1 1 2 2 3 2 2 1 1 2 2 2 2 3 3 3 4 4 4
2 2 2 2 2 1 1 1 1 1 0 0 1 1 1 1 1 1 1 1 1 1 1 2 3 3 3 2 2 3 2 2 3 3 4 4 4 4
3 2 1 1 1 1 1 1 1 1 1 1 1 1 1 1 2 2 2 1 1 1 1 1 2 2 3 2 4 4 3 2 3 3 4 4 4 4
2 1 1 1 1 1 1 1 1 1 1 2 1 1 1 2 2 2 2 2 2 1 1 1 2 2 2 2 1 3 6 4 3 3 3 4 3 3
2 2 1 1 1 2 2 2 2 2 1 2 2 2 2 2 2 2 1 1 2 2 2 2 0 1 2 2 2 2 3 6 4 3 4 4 4 4
2 2 1 1 2 2 2 2 2 2 2 2 2 2 2 2 2 3 2 2 2 3 3 1 2 2 3 3 3 3 3 4 6 8 7 6 4 4
2 2 1 1 1 1 2 2 2 2 1 2 2 2 2 2 2 3 3 3 3 3 3 2 2 2 3 4 4 4 4 5 5 5 6 9 10 8
Wind_Direction
259 255 257 263 257 249 244 241 248 258 255 234 235 277 232 147 116 201 192 136 149 159 165 167 167 169 165 163 159 155 159 163 163 162 155 149 150 154
268 277 275 273 273 261 254 249 249 255 266 280 244 215 69 83 114 171 143 119 140 159 166 165 166 164 161 163 161 157 158 158 158 157 154 152 151 155
277 278 280 283 277 270 257 247 243 237 245 260 249 172 189 224 237 229 160 167 132 145 158 161 164 164 163 163 164 162 162 158 159 159 160 159 154 155
281 292 289 283 273 272 265 252 244 236 235 232 234 232 214 206 203 194 165 151 122 119 139 153 159 162 160 158 157 152 150 147 147 147 150 151 153 151
279 284 291 293 285 281 272 264 253 237 230 222 226 230 229 209 177 136 104 95 133 131 138 142 149 160 161 156 153 150 149 145 142 139 140 141 141 142
280 291 302 307 304 299 281 268 254 242 220 212 207 204 211 208 197 193 185 169 177 150 128 131 133 143 149 156 157 155 154 154 152 149 144 140 135 133
85 8 358 22 24 354 325 306 266 249 230 209 200 196 198 201 200 212 201 176 161 182 163 152 149 147 150 159 164 165 162 157 156 153 149 147 143 139
94 350 331 103 79 67 42 12 335 279 258 232 224 214 215 214 204 211 213 221 213 187 185 160 154 155 165 157 145 156 159 158 155 154 152 149 146 142
44 1 344 53 72 76 104 148 78 2 281 257 241 237 223 211 203 207 227 242 249 167 193 162 164 158 165 131 141 155 158 158 159 162 161 158 155 152
50 48 31 20 21 12 29 30 21 25 323 268 260 254 217 200 203 210 199 191 184 170 206 198 181 174 160 136 143 153 156 162 167 169 167 165 163 161
70 49 39 60 27 355 16 37 32 54 83 76 65 82 68 88 230 211 199 197 192 172 183 207 176 163 151 142 142 157 162 166 169 173 174 174 177 179
102 89 64 46 16 347 317 275 285 332 36 119 141 163 167 161 195 232 233 223 207 179 162 198 179 173 165 143 148 156 161 163 168 171 174 177 179 196
140 116 82 59 16 343 323 351 312 290 239 198 167 160 167 170 180 190 260 265 249 221 157 190 190 183 179 155 147 148 156 154 161 163 166 171 181 204
160 104 96 92 31 333 6 7 288 271 224 158 142 134 143 140 120 97 59 20 9 7 131 193 199 191 183 170 151 146 160 164 169 172 169 166 184 199
65 67 95 158 192 158 133 271 268 244 172 164 151 132 110 99 151 157 145 127 105 88 103 139 193 176 197 180 152 163 176 181 185 184 186 185 187 191
120 120 143 180 251 84 158 203 189 44 354 104 84 98 119 148 187 177 170 157 143 128 118 125 183 201 199 173 173 178 181 184 184 188 204 212 208 211
154 163 171 172 183 153 141 113 131 139 151 121 148 163 177 184 182 165 186 194 191 174 152 153 163 180 218 225 193 184 182 185 186 184 214 224 222 219
216 185 186 193 200 194 199 188 176 139 159 191 199 203 211 215 197 179 196 210 211 203 184 166 165 171 185 169 199 205 208 204 196 191 223 233 227 217
222 201 196 207 224 222 223 221 203 179 231 237 234 232 227 225 226 215 212 217 215 207 197 194 205 218 226 207 167 200 222 216 220 215 224 236 242 232
240 226 217 223 234 243 241 235 230 211 219 246 248 248 245 239 231 232 223 226 227 226 216 214 231 253 271 289 267 182 195 221 235 242 242 240 241 215
227 239 242 244 242 241 250 251 248 245 246 252 250 254 257 257 256 253 236 176 246 244 242 237 175 229 263 262 242 214 187 190 223 255 262 254 246 238
238 239 244 262 261 253 249 255 256 252 242 249 258 255 254 258 257 259 259 238 237 250 258 245 165 211 238 239 244 236 227 198 198 211 234 257 271 273
239 248 242 235 253 263 264 263 265 262 258 265 262 259 263 266 271 269 260 253 247 243 244 240 226 228 242 241 244 247 240 232 230 215 213 205 215 231